Regional Weather Roundup
Issued by NWS

Home | Current Version | Previous Version | Graphics & Text | Print | Product List | Glossary On
Versions: 1 2 3 4 5 6 7 8 9 10 11 12 13 14 15 16 17 18 19 20 21 22 23 24 25 26 27 28 29 30 31 32 33 34 35 36 37 38 39 40 41 42 43 44 45 46 47 48 49 50
000
ASUS43 KIND 190809
RWRIN

WEATHER ROUNDUP FOR INDIANA
NATIONAL WEATHER SERVICE INDIANAPOLIS IN
400 AM EDT SAT APR 19 2014

NOTE: "FAIR" INDICATES FEW OR NO CLOUDS BELOW 12,000 FEET WITH NO
SIGNIFICANT WEATHER AND/OR OBSTRUCTIONS TO VISIBILITY.

* - STATION DOES NOT REPORT WEATHER SUCH AS PRECIPITATION OR FOG.

+ - STATION NOT QUALITY CONTROLLED BY THE NATIONAL WEATHER SERVICE.
    USE DATA WITH CAUTION...ESPECIALLY DEWPOINT AND RELATIVE
    HUMIDITY OBSERVATIONS.

INZ001>003-010>013-019-020-190900-
NORTHWEST INDIANA

CITY           SKY/WX    TMP DP  RH WIND       PRES   REMARKS
GARY /AIRPORT/ CLEAR     38  32  78 NE6       30.36S
LA PORTE +     CLEAR     36  27  68 NE6       30.35S
MICHIGAN CITY+ CLEAR     30  28  93 CALM      30.35F
MONTICELLO +   CLEAR     38  26  64 N7        30.31S
RENSSELAER +   CLEAR     34  28  80 CALM      30.34S
VALPARAISO     CLEAR     32  26  78 NE3       30.34F

$$

LMZ046-743>745-190900-
SOUTHERN LAKE MICHIGAN

STATION/POSITION TIME  TEMP WIND        PRES
                       AIR  DIR/SP/G
                 (UTC) (F)  (DEG/KT/KT) (MB)
MICHIGAN CITY    0800   39   30/  8/  9   N/A

$$

INZ004-005-014>016-021>024-190900-
NORTH CENTRAL INDIANA

CITY           SKY/WX    TMP DP  RH WIND       PRES   REMARKS
GOSHEN         CLEAR     36  28  73 NE6       30.33S
LOGANSPORT +   CLEAR     37  27  65 N7        30.31F
PERU/GRISSOM   CLEAR     36  31  81 NE6       30.30S
ROCHESTER +    CLEAR     36  28  75 N6        30.32F
SOUTH BEND     CLEAR     35  26  69 NE5       30.35S WCI  31
WARSAW +       CLEAR     34  28  80 CALM      30.32S

$$

INZ006>009-017-018-025>027-190900-
NORTHEAST INDIANA

CITY           SKY/WX    TMP DP  RH WIND       PRES   REMARKS
ANGOLA *+      CLEAR     39  34  81 NE7       30.33R
AUBURN +       CLEAR     39  32  75 NE7       30.33R
FORT WAYNE     CLEAR     39  32  76 N6        30.32R

$$

INZ028-029-035-036-043>045-051>053-190900-
WEST CENTRAL INDIANA

CITY           SKY/WX    TMP DP  RH WIND       PRES   REMARKS
GREENCASTLE +  CLEAR     41  36  81 NE6       30.29S
LAFAYETTE      CLEAR     38  27  64 NE7       30.31R
TERRE HAUTE    CLEAR     46  35  65 NE7       30.28R

$$

INZ030>032-037>040-046>048-054>057-064-065-190900-
CENTRAL INDIANA

CITY           SKY/WX    TMP DP  RH WIND       PRES   REMARKS
CP ATTERBURY + CLEAR     45  37  76 NW3       30.27S
INDIANAPOLIS   CLEAR     43  35  73 NE8       30.28S
-EAGLE CREEK   CLEAR     43  34  70 N3        30.28S
KOKOMO *+      CLEAR     37  30  75 NE5       30.31R
MARION +       CLEAR     40  32  74 NE7       30.31R
MT COMFORT *+  CLEAR     41  37  87 N5        30.28S
SHELBYVILLE    CLEAR     48  36  63 N7        30.26S
ZIONSVILLE +   CLEAR     40  32  73 N6        30.29S

$$

INZ033-034-041-042-049-050-058-059-190900-
EAST CENTRAL INDIANA

CITY           SKY/WX    TMP DP  RH WIND       PRES   REMARKS
MUNCIE         CLEAR     41  35  79 NE6       30.28S

$$

INZ060-061-067>069-081>083-085>088-190900-
SOUTHWEST INDIANA

CITY           SKY/WX    TMP DP  RH WIND       PRES   REMARKS
EVANSVILLE     PTCLDY    55  43  63 N9        30.22S
HUNTINGBURG *+ PTCLDY    52  39  62 NE8       30.24R
WASHINGTON +   CLEAR     47  41  81 N3        30.24S

$$

INZ062-063-066-070>080-084-089>092-190900-
SOUTH CENTRAL AND SOUTHEAST INDIANA

CITY           SKY/WX    TMP DP  RH WIND       PRES   REMARKS
BEDFORD +      CLEAR     52  32  46 NE3       30.26
BLOOMINGTON    CLEAR     49  35  58 NE6       30.26S
NORTH VERNON + PTCLDY    50  37  62 NE5       30.26

$$




USA.gov is the U.S. government's official web portal to all federal, state and local government web resources and services.